アイラス彗星

126P/IRAS (1996)

English version
Home page
Updated on May 30, 2009

---------------------------------------------------------------------

・ プロフィール

符号 126P/1996 P1
検出日 1996年8月8日
検出光度 13等
検出者 R. M. McNaught (Siding Spring), Q. A. Parker (Siding Spring)

・ 写真集

・ 軌道要素

Epoch 1996 Nov. 13.0 TT = JDT 2450400.5
T 1996 Oct. 29.99483 TT                                 MPC
q   1.7026847            (2000.0)            P               Q
n   0.07413995     Peri.  356.88703     +0.99620601     +0.08210844
a   5.6117870      Node   357.70072     -0.05583243     +0.34879628
e   0.6965878      Incl.   45.96160     -0.06675570     +0.93359486
P  13.29

・ 星図

・ 1996年 1月 8日〜1997年 2月11日
・ 1996年11月 3日〜1997年 9月19日

・ 光度変化

        m1 = 8.5 + 5 logΔ + 15.0 log r

---------------------------------------------------------------------

軌道要素はM.P.E.C. 2009-K65に掲載されたものです。
星図は StellaNavigator Ver.2.0 for Windows (アストロアーツ編著 / アスキー出版局刊) で作成したものです。
光度グラフはComet for Windowsで作成したものです。

---------------------------------------------------------------------

Copyright(C) Seiichi Yoshida (comet@aerith.net). All rights reserved.